Location: Rossville
(35.0484°N, 89.5426°W)
Time: 23:53:16
(UTC+00:00)

Daily predictions for brighter satellites

Satellite Brightness Start Highest point End
(mag) Time Altitude Azimuth Time Altitude Azimuth Time Altitude Azimuth
Cosmos 1733 0.7 12:01:28 10° S 12:03:04 79° W 12:04:42 10° N
BREEZE-M DEB (TANK) 2.6 12:02:36 10° WSW 12:05:27 49° NW 12:07:47 10° NE
Cosmos 1626 Rocket 3.5 12:01:20 10° S 12:05:45 77° W 12:10:09 10° N
SL-16 R/B 2.2 12:03:59 10° NNW 12:09:37 69° WSW 12:15:13 10° S
Cosmos 1937 Rocket 4.3 12:08:48 10° NW 12:13:13 30° W 12:17:37 10° SSW
SAR-Lupe-4 4.4 12:14:36 10° NNE 12:18:06 54° E 12:21:34 10° S
ARIANE 5 R/B 3.2 12:17:02 10° NNE 12:22:13 63° ESE 12:27:22 10° S
IRIDIUM 104 4.4 12:17:42 10° SSW 12:22:49 60° W 12:27:59 10° N
COSMO-SKYMED 1 3.6 12:20:23 10° SSW 12:23:41 23° W 12:27:01 10° NW
ISS -0.4 12:21:48 10° SSE 12:23:50 15° SE 12:25:53 10° E
USA 267 4.1 12:20:55 10° NE 12:27:19 56° SE 12:33:40 10° SSW
Cosmos-2242 3.6 12:23:56 10° NNW 12:27:45 33° W 12:31:31 10° SSW
OAO 2 Rocket 3.6 12:22:53 10° WSW 12:28:03 74° SSE 12:33:07 10° E
UNK 3.7 23:04:21 10° NNE 23:08:56 79° ESE 23:13:28 10° S
Cosmos 1570 Rocket 4.0 23:06:36 10° NNW 23:11:57 82° ENE 23:17:13 10° SSE
Cosmos 836 Rocket 4.5 23:09:15 10° NNW 23:14:31 77° ENE 23:19:46 10° SSE
Cosmos 1743 2.3 23:17:00 10° N 23:20:13 57° E 23:23:23 10° SSE
Aureole 1 Rocket 4.4 23:22:09 10° SE 23:25:00 19° E 23:28:17 10° NE
Cosmos 2098 Rocket 3.7 23:22:34 10° SSW 23:26:13 53° W 23:30:34 10° N
Cosmos 773 Rocket 4.0 23:22:14 10° NNW 23:27:29 80° ENE 23:32:43 10° SSE
Cosmos 1825 Rocket 4.4 23:24:51 10° NNE 23:28:37 28° ENE 23:32:20 10° SE
NOSS 2-3 (C) 3.3 23:27:20 10° SSW 23:30:51 49° ESE 23:34:01 11° NE
Cosmos 1758 Rocket 3.9 23:26:45 10° NNW 23:31:00 67° W 23:35:13 10° S
Cosmos 2297 Rocket 2.2 23:25:46 10° NNW 23:31:22 60° ENE 23:36:56 10° SSE
Cosmos 2151 2.8 23:28:33 10° N 23:32:42 69° E 23:36:49 10° SSE
Cosmos 990 Rocket 3.9 23:27:40 10° S 23:32:43 68° ESE 23:37:49 10° NNE
IRIDIUM 106 4.3 23:27:32 10° N 23:32:45 72° E 23:37:56 10° S
ARIANE 5 R/B 2.5 23:28:47 10° SSE 23:33:45 65° ENE 23:38:47 10° N
IRS-P3 4.4 23:30:36 10° SE 23:35:38 45° ENE 23:40:41 10° N
USA 238 DEB 3.7 23:30:34 10° S 23:36:14 50° ESE 23:42:20 10° NE
USA 238 3.7 23:30:41 10° S 23:36:21 49° ESE 23:42:25 10° NE
Cosmos 2058 Rocket 4.2 23:37:01 10° SE 23:40:32 23° E 23:43:31 12° NE
Cosmos 1933 3.2 23:40:32 10° S 23:44:21 83° W 23:48:11 10° N
SPOT 1/Viking Rocket 4.0 23:39:59 10° SE 23:44:43 37° ENE 23:49:28 10° N
SJ-12 3.6 23:43:00 10° SSE 23:46:45 81° ENE 23:50:32 10° N
Meteor 1-25 Rocket 4.2 23:43:22 10° N 23:49:09 66° E 23:54:50 10° SSE
BlueWalker 3 1.6 23:46:16 10° NW 23:49:54 72° NE 23:53:29 10° SE
Cosmos 1607 3.9 23:43:55 10° NNW 23:50:07 64° ENE 23:56:22 10° SE
Cosmos 1980 Rocket 2.4 23:44:41 10° S 23:50:07 50° ESE 23:55:10 12° NE
SAR-Lupe-3 3.7 23:47:50 10° N 23:50:21 75° W 23:52:49 10° SSW
Hubble Space Telescope 2.7 23:50:20 10° SSW 23:52:52 17° SSE 23:55:12 11° SE
AQUARIUS 4.0 23:48:35 10° SSE 23:52:58 79° ENE 23:57:23 10° N
